Wind_Speed
7 6 5 5 4 4 3 3 2 2 1 1 1 1 1 1 1 1 1 1 1 2 1 1 2 2 2 3 3 3 4 4 3 2 3 4 4 4 5 5 6 6 6
6 6 5 5 4 4 3 3 2 2 1 1 1 0 0 1 0 0 1 1 1 1 1 1 2 2 2 2 3 3 3 4 3 3 2 3 4 5 5 5 6 6 6
7 6 6 5 4 4 4 3 3 2 1 1 2 1 1 0 0 1 1 1 1 1 1 2 2 2 2 2 3 4 4 3 3 3 2 3 4 4 6 6 6 6 5
7 7 6 6 5 4 4 4 4 3 2 2 2 2 2 2 1 1 2 1 2 2 2 2 2 2 2 3 3 4 4 4 3 3 3 3 4 4 5 7 7 7 6
8 7 7 6 5 5 4 4 4 4 4 3 3 3 3 3 2 2 2 2 2 2 3 3 3 3 3 3 4 5 5 5 4 4 4 4 5 5 6 7 7 8 7
8 7 7 6 6 5 5 5 5 5 4 4 3 3 4 4 3 3 3 3 3 3 4 4 4 4 4 4 5 5 5 5 5 5 5 6 6 6 6 7 7 8 8
9 8 7 6 6 5 5 5 5 5 5 4 4 4 5 4 4 4 4 4 4 4 4 4 5 5 5 6 6 6 6 6 6 6 7 7 7 7 7 7 7 7 9
9 9 8 6 6 6 6 5 5 5 5 5 5 5 4 4 4 4 4 5 5 6 5 5 6 6 6 6 7 7 7 7 7 7 8 8 8 8 8 8 8 8 8
9 9 8 8 7 6 6 5 5 5 5 5 6 5 5 5 5 5 4 4 5 6 6 6 7 7 7 7 7 8 8 8 9 8 8 9 9 9 9 9 9 9 9
9 9 8 8 8 7 7 6 6 6 5 5 6 6 6 6 6 6 5 5 5 6 6 6 6 7 7 8 8 8 8 9 10 10 9 9 9 9 10 10 10 9 10
10 9 9 9 8 8 8 7 7 6 6 7 7 7 6 6 6 6 6 6 6 6 6 7 7 8 8 8 8 9 9 9 10 11 11 10 10 10 11 10 11 11 11
11 10 9 9 9 9 9 8 8 8 7 7 7 7 7 7 7 7 7 7 8 8 8 8 8 8 9 9 10 10 10 10 10 11 12 12 12 12 12 12 11 11 11
11 11 10 10 10 10 10 9 9 9 8 8 8 7 8 8 8 8 9 9 9 10 10 10 10 10 10 10 11 11 11 11 12 12 12 13 13 13 12 12 12 13 13
13 13 12 11 11 10 10 9 9 9 9 8 9 8 8 9 10 10 10 10 11 11 11 11 11 11 11 12 12 12 13 13 13 13 13 14 14 14 13 14 14 14 14
14 14 13 12 11 11 10 9 9 9 9 9 9 9 9 10 10 11 11 12 12 13 12 13 12 12 12 12 12 13 13 14 14 14 14 14 15 14 14 14 14 14 14
15 15 14 13 12 12 11 11 10 10 10 10 9 9 10 11 11 11 12 13 13 13 13 13 13 13 13 14 14 14 14 14 15 16 16 16 16 15 15 15 15 15 16
16 15 14 14 14 13 12 12 11 11 11 11 11 11 12 12 12 12 12 13 13 13 14 14 14 15 15 15 15 15 16 16 16 16 16 17 17 17 17 16 17 16 17
16 16 15 15 14 14 14 13 12 12 12 12 12 13 13 13 13 13 13 13 14 14 14 15 16 16 17 16 16 16 16 17 17 17 17 17 18 18 18 18 19 18 18
17 16 15 15 15 15 15 14 13 13 14 14 13 13 14 13 13 13 13 14 14 14 15 15 16 16 17 17 17 17 17 18 18 18 18 18 19 19 19 19 20 20 19
17 17 16 16 15 15 15 15 14 14 15 14 14 14 15 15 15 14 14 14 15 15 15 16 17 17 17 18 19 19 19 19 19 19 19 19 20 21 20 20 20 20 20
18 17 17 17 17 16 16 16 15 15 15 16 16 16 16 16 15 15 15 15 15 16 16 16 17 17 18 19 19 19 20 20 21 21 21 21 21 21 22 22 22 21 21
18 18 18 17 17 17 16 16 16 16 16 16 16 16 16 15 14 14 15 15 16 17 17 18 18 19 19 20 20 20 21 22 22 22 22 22 23 23 23 23 24 24 23
18 18 18 18 17 17 17 17 17 16 16 16 17 17 17 16 15 16 16 16 16 17 17 17 18 20 20 21 21 21 21 22 23 22 22 23 24 24 24 25 25 26 26
18 18 19 19 18 18 18 18 17 17 17 17 17 17 17 17 16 16 17 18 18 18 17 17 17 18 20 21 22 22 22 23 23 23 24 24 25 25 26 26 27 27 27
18 18 18 18 19 19 19 18 18 18 18 18 18 18 19 19 18 17 18 19 18 18 18 18 17 17 18 20 21 22 23 23 24 24 24 25 26 26 27 27 27 27 27
19 19 19 19 19 19 19 19 18 18 18 18 18 19 19 20 19 19 19 20 20 19 18 17 17 18 18 19 20 21 23 24 24 25 26 27 26 27 27 28 28 28 27
Wind_Direction
10 11 10 7 5 3 3 357 346 345 356 3 68 102 99 94 107 103 112 136 147 142 149 167 191 194 181 172 179 189 204 216 216 218 219 214 213 208 193 196 205 202 206
2 1 359 355 352 352 350 346 338 324 332 316 252 171 97 82 93 123 169 181 166 133 144 165 203 216 206 200 200 198 207 210 214 225 211 208 208 203 196 194 199 201 208
350 347 346 343 339 336 336 332 326 314 313 288 256 249 237 186 184 209 212 215 210 205 204 188 203 214 215 215 219 217 213 207 216 215 220 227 219 214 212 206 203 207 207
343 342 339 334 329 323 325 325 319 302 295 290 269 252 236 231 233 233 238 247 236 232 224 218 213 225 229 222 224 222 222 225 217 222 231 230 222 216 216 213 209 211 209
339 336 331 326 321 313 311 312 308 294 286 283 273 252 240 238 239 248 248 253 238 236 231 229 234 236 235 232 226 227 231 234 230 226 230 230 223 220 217 220 220 218 218
339 332 325 324 317 312 309 304 302 293 283 276 267 254 237 233 243 251 246 251 241 238 234 236 243 246 241 233 229 231 229 236 232 234 236 239 235 232 228 227 225 227 227
332 331 327 323 319 312 307 303 298 293 278 269 264 254 237 232 247 249 250 251 250 243 238 241 244 247 244 235 232 235 233 232 232 236 238 238 240 239 235 237 239 238 234
328 326 322 322 321 314 307 305 297 287 274 263 261 255 245 244 249 250 250 251 252 247 245 243 245 246 246 238 234 236 235 233 237 238 239 234 243 242 242 243 246 247 245
327 322 317 312 309 307 308 306 300 296 282 265 260 251 245 247 247 247 250 260 261 256 247 244 245 248 245 242 243 241 237 236 238 243 243 240 242 243 244 246 246 246 248
320 318 315 310 304 300 302 299 296 293 287 276 266 255 248 247 246 247 254 259 258 259 256 246 245 247 245 242 243 246 243 244 241 240 243 245 243 243 246 247 247 245 247
312 314 314 312 304 300 299 299 300 299 295 287 275 261 253 250 248 247 255 258 259 261 262 259 254 250 248 247 247 249 248 248 242 241 244 246 247 245 245 248 251 247 248
304 306 311 311 303 297 295 295 300 300 295 291 282 265 258 258 254 252 256 258 260 260 259 261 263 257 253 252 251 251 251 249 247 245 245 248 249 248 246 250 252 249 252
299 300 302 306 304 304 302 298 299 298 295 290 284 272 265 264 263 262 261 259 259 259 260 260 262 260 256 254 254 253 252 251 250 250 248 249 250 252 249 252 254 250 252
298 300 299 299 300 306 304 296 295 294 292 290 287 279 273 270 267 265 264 261 262 261 262 261 263 261 257 255 253 254 253 252 253 252 251 254 253 253 252 254 255 252 250
293 296 296 296 300 301 298 292 290 290 289 289 289 280 275 273 272 270 266 264 264 264 263 261 261 260 258 256 255 256 256 254 254 254 256 255 254 253 257 257 255 253 251
289 291 292 293 296 296 294 289 288 289 287 285 281 278 273 273 272 270 271 270 267 265 261 259 259 260 261 260 257 257 257 255 256 256 256 255 254 255 258 257 256 256 254
285 286 289 290 291 290 289 292 291 287 286 284 281 279 276 275 273 272 275 273 269 265 260 258 259 260 260 261 261 261 259 258 259 258 257 255 254 257 258 257 256 258 257
283 284 286 287 288 286 287 289 289 286 283 283 281 281 281 278 278 275 275 275 271 267 261 259 259 260 261 261 261 263 262 260 258 257 257 256 255 258 258 259 260 261 261
283 282 283 285 286 284 285 286 286 286 283 282 281 281 282 282 282 278 276 275 273 270 264 262 262 262 262 262 263 264 261 261 259 258 258 257 257 259 259 259 260 261 260
280 278 279 281 282 283 284 286 284 283 281 280 280 282 284 283 280 278 277 277 274 271 267 263 263 263 263 263 264 264 262 260 261 259 259 258 258 259 259 258 258 257 258
276 276 278 279 280 281 281 282 281 278 279 280 279 279 281 279 278 277 276 277 274 272 269 264 264 264 263 263 264 264 262 260 261 260 258 258 260 260 259 258 258 257 258
274 276 280 281 279 280 280 279 277 275 276 277 276 276 280 279 276 276 274 278 277 276 272 267 264 264 264 262 262 262 263 261 260 259 257 259 260 260 259 260 260 258 258
274 275 278 278 276 276 278 279 279 276 275 275 275 277 280 280 277 278 276 280 281 278 278 273 267 264 263 263 262 263 263 262 261 262 261 261 261 261 261 260 259 259 259
276 275 276 275 274 275 276 276 277 274 273 275 274 276 279 282 280 279 282 284 284 283 279 275 275 270 265 262 262 263 262 262 263 264 265 264 262 261 262 260 259 259 259
277 276 278 277 278 276 273 274 274 274 271 273 274 277 280 281 281 281 285 286 284 282 279 278 277 273 267 264 263 263 263 262 263 264 264 266 263 261 261 260 260 261 261
277 277 278 278 276 275 273 272 274 276 274 272 274 274 277 280 280 281 283 284 282 280 278 275 275 274 273 271 268 266 265 263 263 264 266 267 265 263 263 263 262 262 261
Height
5895 5894 5893 5892 5891 5890 5889 5888 5888 5887 5886 5885 5885 5885 5885 5884 5884 5884 5884 5884 5884 5884 5884 5885 5885 5885 5886 5886 5886 5887 5887 5888 5888 5889 5889 5889 5890 5891 5891 5892 5893 5894 5894
5895 5893 5892 5892 5891 5890 5889 5888 5887 5886 5885 5885 5884 5884 5884 5884 5884 5884 5884 5884 5884 5884 5884 5884 5885 5885 5885 5886 5886 5887 5887 5888 5888 5889 5889 5889 5889 5890 5891 5892 5892 5893 5894
5894 5893 5892 5891 5890 5889 5888 5887 5886 5885 5885 5884 5884 5884 5883 5883 5883 5883 5883 5883 5883 5884 5884 5884 5884 5884 5885 5885 5886 5886 5887 5888 5888 5888 5888 5888 5888 5889 5890 5891 5892 5892 5893
5893 5892 5891 5890 5889 5888 5887 5886 5885 5885 5884 5883 5883 5883 5883 5883 5883 5883 5883 5883 5883 5883 5883 5883 5884 5884 5884 5885 5885 5885 5886 5887 5887 5887 5887 5888 5888 5888 5889 5890 5891 5892 5893
5892 5891 5890 5889 5888 5887 5886 5885 5884 5884 5883 5882 5882 5881 5881 5882 5882 5882 5882 5882 5882 5882 5882 5882 5883 5883 5884 5884 5884 5884 5885 5886 5886 5886 5887 5887 5887 5888 5889 5890 5890 5891 5892
5891 5889 5888 5887 5887 5886 5885 5884 5883 5883 5882 5881 5881 5880 5880 5881 5881 5881 5881 5881 5881 5881 5881 5881 5882 5882 5882 5883 5883 5883 5884 5885 5885 5886 5886 5886 5886 5887 5888 5889 5889 5890 5891
5890 5889 5887 5886 5886 5885 5884 5883 5882 5881 5881 5880 5880 5879 5879 5879 5880 5880 5880 5880 5880 5880 5880 5880 5881 5881 5881 5881 5882 5882 5882 5883 5884 5885 5885 5885 5885 5886 5887 5887 5888 5889 5890
5889 5888 5886 5885 5884 5884 5883 5882 5881 5880 5879 5879 5878 5878 5878 5878 5878 5879 5879 5879 5879 5879 5879 5879 5879 5879 5880 5879 5880 5881 5881 5882 5883 5883 5884 5884 5885 5885 5886 5886 5887 5888 5888
5888 5886 5885 5884 5883 5882 5881 5880 5879 5879 5878 5877 5877 5877 5877 5877 5877 5877 5877 5877 5877 5877 5877 5877 5878 5878 5878 5879 5879 5880 5880 5881 5881 5882 5882 5883 5883 5884 5884 5885 5885 5886 5886
5886 5885 5883 5882 5881 5880 5880 5879 5878 5877 5876 5876 5875 5875 5875 5875 5875 5875 5876 5876 5876 5876 5876 5876 5876 5876 5877 5877 5878 5878 5879 5879 5879 5880 5881 5881 5882 5882 5883 5883 5883 5884 5885
5885 5883 5882 5881 5879 5879 5878 5877 5876 5876 5875 5874 5874 5873 5873 5873 5873 5873 5874 5874 5874 5874 5874 5874 5875 5875 5875 5875 5876 5876 5876 5877 5877 5878 5878 5879 5880 5880 5881 5881 5882 5882 5883
5883 5881 5880 5879 5878 5877 5876 5875 5874 5874 5873 5872 5872 5871 5872 5872 5871 5872 5872 5872 5872 5873 5873 5872 5872 5872 5872 5873 5873 5874 5874 5874 5875 5875 5876 5877 5877 5878 5878 5879 5880 5881 5881
5881 5879 5878 5877 5876 5875 5874 5873 5872 5872 5871 5870 5870 5869 5870 5869 5870 5870 5870 5870 5870 5870 5870 5870 5870 5870 5870 5870 5871 5871 5871 5872 5872 5872 5873 5874 5875 5875 5876 5877 5877 5878 5879
5878 5877 5876 5875 5874 5873 5872 5871 5870 5870 5869 5868 5868 5867 5867 5867 5867 5868 5868 5867 5867 5867 5867 5867 5867 5867 5867 5867 5868 5868 5869 5869 5869 5870 5871 5871 5872 5873 5873 5874 5875 5875 5876
5876 5875 5874 5873 5872 5871 5870 5869 5868 5867 5866 5866 5865 5865 5865 5865 5865 5865 5865 5864 5864 5864 5864 5864 5864 5864 5864 5865 5865 5865 5866 5866 5866 5867 5868 5868 5869 5870 5870 5871 5872 5872 5873
5873 5872 5871 5870 5869 5868 5867 5866 5865 5864 5864 5863 5863 5862 5862 5862 5861 5861 5861 5861 5861 5860 5860 5860 5861 5861 5861 5861 5862 5862 5862 5863 5863 5864 5864 5865 5866 5866 5867 5868 5868 5869 5869
5870 5869 5868 5867 5866 5865 5864 5863 5862 5861 5861 5860 5860 5859 5859 5858 5858 5858 5858 5857 5857 5856 5856 5857 5857 5857 5858 5858 5858 5858 5858 5859 5860 5860 5861 5861 5862 5863 5863 5864 5865 5865 5866
5866 5866 5865 5864 5863 5862 5861 5860 5859 5858 5858 5857 5856 5856 5855 5855 5854 5854 5854 5854 5853 5853 5853 5853 5853 5853 5854 5854 5854 5854 5855 5855 5856 5856 5857 5857 5858 5859 5859 5860 5861 5861 5862
5863 5862 5861 5860 5859 5858 5857 5856 5855 5855 5854 5854 5853 5852 5852 5851 5851 5851 5850 5850 5849 5849 5849 5849 5849 5849 5849 5849 5849 5850 5850 5851 5851 5852 5852 5853 5853 5854 5855 5855 5856 5857 5857
5858 5857 5857 5856 5856 5855 5854 5853 5852 5851 5850 5850 5849 5849 5848 5848 5847 5847 5847 5846 5845 5845 5845 5845 5844 5844 5844 5844 5845 5845 5845 5846 5847 5847 5848 5848 5849 5849 5850 5851 5851 5851 5852
5854 5853 5853 5852 5851 5851 5850 5849 5848 5847 5846 5846 5845 5845 5844 5844 5843 5843 5842 5842 5841 5841 5840 5840 5839 5840 5840 5840 5840 5840 5841 5841 5842 5842 5843 5843 5844 5844 5845 5845 5846 5846 5847
5849 5849 5848 5848 5847 5846 5846 5844 5843 5842 5842 5841 5841 5840 5840 5839 5839 5839 5838 5837 5837 5836 5835 5835 5834 5834 5835 5835 5835 5835 5836 5837 5837 5837 5837 5838 5839 5839 5840 5840 5840 5841 5841
5845 5845 5844 5844 5843 5842 5841 5840 5839 5838 5838 5838 5837 5836 5836 5835 5834 5835 5834 5833 5832 5831 5830 5829 5829 5829 5829 5829 5829 5830 5830 5831 5831 5831 5831 5832 5833 5833 5834 5834 5834 5835 5836
5841 5840 5840 5839 5838 5838 5837 5836 5835 5834 5833 5833 5832 5832 5831 5831 5830 5830 5830 5829 5828 5826 5825 5824 5824 5823 5823 5823 5824 5824 5824 5825 5825 5825 5826 5826 5826 5826 5827 5828 5828 5829 5829
5836 5836 5835 5834 5834 5833 5832 5832 5831 5830 5829 5828 5828 5828 5827 5826 5826 5825 5825 5824 5823 5822 5820 5820 5819 5818 5817 5817 5817 5817 5818 5818 5819 5819 5819 5819 5820 5820 5820 5821 5821 5822 5822
5832 5831 5830 5829 5829 5828 5827 5827 5826 5825 5825 5824 5823 5822 5822 5821 5821 5820 5820 5819 5818 5817 5815 5814 5814 5813 5813 5812 5812 5812 5812 5812 5813 5813 5813 5813 5813 5813 5813 5814 5814 5815 5815